Tracking 20621 objects as of 31-Mar-2020
HD Live streaming from Space Station
objects crossing your sky now

VANGUARD 3

Track VANGUARD 3 now!
10-day predictions
VANGUARD 3 is classified as:


NORAD ID: 20
Int'l Code: 1959-007A
Perigee: 515.7 km
Apogee: 3,269.8 km
Inclination: 33.3 °
Period: 124.6 minutes
Semi major axis: 8263 km
RCS: 0.654 m2 (medium)
Launch date: September 18, 1959
Source: United States (US)
Launch site: AIR FORCE EASTERN TEST RANGE (AFETR)
aabbcc
Your satellite tracking list
Your tracking list is empty




NASA's NSSDC Master Catalog

Two Line Element Set (TLE):
1    20U 59007A   20090.47205490 -.00000002 +00000-0 -13541-4 0  9997
2    20 033.3477 103.3931 1666391 207.7640 142.3308 11.55678939221469
Source of the keplerian elements: AFSPC